Weather History for Keahole Point, HI

Change the Weather History Date:

Friday, November 9, 2012

  Actual Average Record
Temperature  
Mean Temperature 77 °F -  
Max Temperature 84 °F 82 °F 90 °F (2001)
Min Temperature 70 °F 71 °F 32 °F (2007)
Cooling Degree Days 12    
Growing Degree Days 27 (Base 50)    
Moisture  
Dew Point 63 °F    
Average Humidity 60    
Maximum Humidity 78    
Minimum Humidity 38    
Precipitation  
Precipitation 0.00 in - - ()
Sea Level Pressure  
Sea Level Pressure 30.00 in    
Wind  
Wind Speed 8 mph (East)    
Max Wind Speed 24 mph    
Max Gust Speed 32 mph    
Visibility 10 miles    
Events      
Averages and records for this station are not official NWS values.
T = Trace of Precipitation, MM = Missing Value Source: NWS Daily Summary

Daily Weather History Graph

Daily Weather History Graph

Search for Another Location

Airport:

Trip Planner

Search our weather history database for the weather conditions in past years. The results will help you decide how hot, cold, wet, or windy it might be!

Date:

Astronomy

Nov. 09, 2012 Rise Set
Actual Time 6:29 AM HST 5:46 PM HST
Civil Twilight 6:06 AM HST 6:09 PM HST
Nautical Twilight 5:40 AM HST 6:35 PM HST
Astronomical Twilight 5:14 AM HST 7:01 PM HST
Moon 2:14 AM HST (11/9) 2:35 PM HST (11/9)
Length of Visible Light 12h 02m
Length of Day
11h 16m
Waning Crescent, 21% of the Moon is Illuminated
Nov 9
Waning Crescent
Nov 13
New
Nov 20
First Quarter
Nov 28
Full
Dec 6
Last Quarter

Hourly Weather History & Observations

Time (HST) Temp. Heat Index Dew Point Humidity Pressure Visibility Wind Dir Wind Speed Gust Speed Precip Events Conditions
12:53 AM 72.0 °F - 62.1 °F 71% 30.03 in 10.0 mi SE 6.9 mph - N/A   Clear
1:53 AM 73.0 °F - 63.0 °F 71% 30.01 in 10.0 mi East 6.9 mph - N/A   Clear
2:53 AM 71.1 °F - 61.0 °F 70% 30.00 in 10.0 mi NE 9.2 mph - N/A   Clear
3:53 AM 72.0 °F - 62.1 °F 71% 29.99 in 10.0 mi East 6.9 mph - N/A   Clear
4:53 AM 70.0 °F - 63.0 °F 78% 29.99 in 10.0 mi ENE 5.8 mph - N/A   Clear
5:53 AM 72.0 °F - 63.0 °F 73% 30.00 in 10.0 mi East 5.8 mph - N/A   Clear
6:53 AM 71.1 °F - 63.0 °F 75% 30.02 in 10.0 mi Calm Calm - N/A   Clear
7:53 AM 77.0 °F - 64.9 °F 66% 30.03 in 10.0 mi SE 10.4 mph - N/A   Clear
8:53 AM 80.1 °F 81.9 °F 64.9 °F 60% 30.05 in 10.0 mi Variable 5.8 mph - N/A   Clear
9:53 AM 81.0 °F 83.0 °F 66.0 °F 60% 30.05 in 10.0 mi West 4.6 mph - N/A   Partly Cloudy
10:53 AM 82.0 °F 84.1 °F 66.0 °F 58% 30.03 in 10.0 mi West 6.9 mph - N/A   Clear
11:53 AM 81.0 °F 83.0 °F 66.0 °F 60% 30.02 in 10.0 mi WSW 8.1 mph - N/A   Overcast
12:53 PM 82.0 °F 84.1 °F 66.0 °F 58% 29.99 in 10.0 mi South 11.5 mph - N/A   Overcast
1:53 PM 82.0 °F 84.5 °F 66.9 °F 60% 29.96 in 10.0 mi SW 12.7 mph - N/A   Mostly Cloudy
2:53 PM 82.0 °F 84.1 °F 66.0 °F 58% 29.94 in 10.0 mi WSW 8.1 mph - N/A   Overcast
3:53 PM 84.0 °F 85.4 °F 64.0 °F 51% 29.94 in 10.0 mi Variable 6.9 mph - N/A   Partly Cloudy
4:22 PM 82.4 °F 82.0 °F 57.2 °F 42% 29.94 in 10.0 mi NE 18.4 mph 32.2 mph N/A   Partly Cloudy
4:53 PM 82.9 °F 82.0 °F 55.0 °F 38% 29.95 in 10.0 mi NE 24.2 mph 29.9 mph N/A   Clear
5:53 PM 81.0 °F 81.3 °F 59.0 °F 47% 29.97 in 10.0 mi ENE 13.8 mph - N/A   Clear
6:53 PM 79.0 °F - 55.0 °F 44% 29.98 in 10.0 mi North 5.8 mph - N/A   Partly Cloudy
7:53 PM 75.9 °F - 64.9 °F 69% 29.99 in 10.0 mi ESE 11.5 mph - N/A   Clear
8:44 PM 78.8 °F - 60.8 °F 54% 30.01 in 10.0 mi NE 5.8 mph - N/A   Mostly Cloudy
8:53 PM 78.1 °F - 61.0 °F 56% 30.01 in 10.0 mi North 4.6 mph - N/A   Overcast
9:25 PM 77.0 °F - 62.6 °F 61% 30.01 in 10.0 mi NE 4.6 mph - N/A   Mostly Cloudy
9:53 PM 78.1 °F - 60.1 °F 54% 30.01 in 10.0 mi NNW 3.5 mph - N/A   Overcast
10:53 PM 75.9 °F - 63.0 °F 64% 30.00 in 10.0 mi SSE 3.5 mph - N/A   Clear
11:53 PM 75.9 °F - 63.0 °F 64% 30.00 in 10.0 mi East 8.1 mph - N/A   Clear